Columbus, OH

9:26 AM EDT on April 27, 2017 (GMT -0400)
Port Columbus International

Weather History for KCMH - February, 2013

Change the Weather History Date:

Friday, February 15, 2013

  Actual Average Record
Temperature  
Mean Temperature 33 °F 33 °F  
Max Temperature 37 °F 41 °F 70 °F (1954)
Min Temperature 28 °F 25 °F -4 °F (1978)
Degree Days  
Heating Degree Days 32 32  
Month to date heating degree days 508 506  
Since 1 July heating degree days 3424 3598  
Cooling Degree Days 0 0  
Month to date cooling degree days 0 0  
Year to date cooling degree days 0 0  
Moisture  
Dew Point 28 °F    
Average Humidity 77    
Maximum Humidity 89    
Minimum Humidity 64    
Precipitation  
Precipitation 0.03 in 0.08 in 1.72 in (1990)
Month to date precipitation 0.53 1.23  
Year to date precipitation 2.78 3.96  
Snow  
Snow 0.30 in 0.20 in 9.70 in (2010)
Month to date snowfall 4.6 3.3  
Since 1 July snowfall 26.8 18.6  
Snow Depth 0.00 in    
Sea Level Pressure  
Sea Level Pressure 30.05 in    
Wind  
Wind Speed 5 mph (NW)    
Max Wind Speed 22 mph    
Max Gust Speed 26 mph    
Visibility 6 miles    
Events Snow    
T = Trace of Precipitation, MM = Missing Value Source: NWS Daily Summary

Daily Weather History Graph

Daily Weather History Graph

Search for Another Location

Airport or City:

Trip Planner

Search our weather history database for the weather conditions in past years. The results will help you decide how hot, cold, wet, or windy it might be!

Date:

Astronomy

Feb. 15, 2013 Rise Set
Actual Time 7:24 AM EST 6:07 PM EST
Civil Twilight 6:56 AM EST 6:35 PM EST
Nautical Twilight 6:24 AM EST 7:07 PM EST
Astronomical Twilight 5:53 AM EST 7:38 PM EST
Moon 9:59 AM EST (2/15) No Moon Set
Length of Visible Light 11h 39m
Length of Day
10h 43m
Waxing Crescent, 30% of the Moon is Illuminated
Feb 15
Waxing Crescent
Feb 17
First Quarter
Feb 25
Full
Mar 4
Last Quarter
Mar 11
New

Hourly Weather History & Observations

Time (EST) Temp. Windchill Dew Point Humidity Pressure Visibility Wind Dir Wind Speed Gust Speed Precip Events Conditions
12:51 AM 34.0 °F 31.0 °F 28.0 °F 79% 29.98 in 10.0 mi West 3.5 mph - N/A   Clear
1:51 AM 30.9 °F - 26.1 °F 82% 29.99 in 10.0 mi Calm Calm - N/A   Clear
2:51 AM 30.9 °F 26.2 °F 27.0 °F 85% 29.99 in 9.0 mi South 4.6 mph - N/A   Clear
3:51 AM 30.0 °F 26.5 °F 27.0 °F 88% 29.99 in 8.0 mi SW 3.5 mph - N/A   Clear
4:51 AM 30.0 °F - 27.0 °F 88% 30.00 in 9.0 mi Calm Calm - N/A   Clear
5:51 AM 30.9 °F - 27.0 °F 85% 30.02 in 10.0 mi Calm Calm - N/A   Overcast
6:51 AM 32.0 °F - 27.0 °F 82% 30.03 in 10.0 mi Calm Calm - N/A   Overcast
7:51 AM 32.0 °F - 27.0 °F 82% 30.04 in 9.0 mi Calm Calm - N/A   Overcast
8:51 AM 33.1 °F 30.0 °F 28.9 °F 85% 30.07 in 9.0 mi South 3.5 mph - N/A   Overcast
9:51 AM 35.1 °F 32.2 °F 28.9 °F 78% 30.08 in 7.0 mi Variable 3.5 mph - N/A   Overcast
10:51 AM 37.0 °F 31.6 °F 26.1 °F 65% 30.07 in 10.0 mi WNW 6.9 mph - N/A   Overcast
11:25 AM 35.6 °F 30.7 °F 26.6 °F 70% 30.05 in 10.0 mi West 5.8 mph - N/A   Overcast
11:51 AM 36.0 °F 30.3 °F 28.0 °F 73% 30.07 in 7.0 mi NW 6.9 mph - N/A   Overcast
12:10 PM 33.8 °F 27.0 °F 30.2 °F 87% 30.04 in 2.5 mi North 8.1 mph - 0.00 in Snow Light Snow
12:51 PM 33.1 °F 26.9 °F 30.9 °F 92% 30.06 in 2.5 mi North 6.9 mph - 0.01 in Snow Light Snow
12:58 PM 33.8 °F 28.6 °F 30.2 °F 87% 30.03 in 2.0 mi NNW 5.8 mph - 0.00 in Snow Light Snow
1:18 PM 33.8 °F 27.0 °F 30.2 °F 87% 30.03 in 2.5 mi North 8.1 mph - 0.00 in Snow Light Snow
1:51 PM 33.1 °F 26.1 °F 30.0 °F 89% 30.05 in 2.5 mi NNW 8.1 mph - 0.00 in Snow Light Snow
2:08 PM 33.8 °F 28.6 °F 30.2 °F 87% 30.02 in 0.5 mi NNW 5.8 mph - 0.00 in Snow Light Snow
2:10 PM 33.8 °F 28.6 °F 30.2 °F 87% 30.02 in 0.5 mi NNW 5.8 mph - 0.01 in Snow Light Snow
2:22 PM 33.8 °F 29.6 °F 30.2 °F 87% 30.02 in 1.0 mi NNW 4.6 mph - 0.01 in Snow Light Snow
2:30 PM 33.8 °F 29.6 °F 30.2 °F 87% 30.02 in 1.0 mi NNW 4.6 mph - 0.01 in Snow Light Snow
2:46 PM 33.8 °F 27.0 °F 30.2 °F 87% 30.02 in 1.0 mi NNW 8.1 mph - 0.01 in   Overcast
2:51 PM 33.1 °F 26.9 °F 30.0 °F 89% 30.05 in 1.0 mi NNW 6.9 mph - 0.01 in Snow Light Snow
3:00 PM 33.8 °F 25.8 °F 30.2 °F 87% 30.03 in 3.0 mi NNW 10.4 mph - 0.00 in Snow Light Snow
3:15 PM 33.8 °F 28.6 °F 30.2 °F 87% 30.03 in 6.0 mi NNW 5.8 mph - 0.00 in Snow Light Snow
3:42 PM 35.6 °F 30.7 °F 30.2 °F 81% 30.03 in 6.0 mi NW 5.8 mph - 0.00 in   Haze
3:51 PM 34.0 °F 26.6 °F 28.9 °F 82% 30.06 in 6.0 mi WNW 9.2 mph - 0.00 in   Haze
4:30 PM 35.6 °F 28.0 °F 26.6 °F 70% 30.03 in 10.0 mi NNW 10.4 mph - N/A   Scattered Clouds
4:51 PM 35.1 °F 27.9 °F 28.0 °F 76% 30.06 in 10.0 mi WNW 9.2 mph - N/A   Scattered Clouds
5:02 PM 35.6 °F 28.0 °F 26.6 °F 70% 30.04 in 10.0 mi NW 10.4 mph - N/A   Mostly Cloudy
5:21 PM 33.8 °F 28.6 °F 28.4 °F 81% 30.04 in 10.0 mi NW 5.8 mph - N/A   Mostly Cloudy
5:51 PM 35.1 °F 28.6 °F 28.0 °F 76% 30.07 in 10.0 mi NW 8.1 mph - 0.00 in   Overcast
6:44 PM 32.0 °F 22.1 °F 26.6 °F 80% 30.07 in 5.0 mi NNW 13.8 mph - N/A   Haze
6:51 PM 32.0 °F 22.5 °F 27.0 °F 82% 30.10 in 3.0 mi NNW 12.7 mph - N/A Snow Light Snow
7:12 PM 30.2 °F 19.3 °F 26.6 °F 86% 30.08 in 3.0 mi NNW 15.0 mph - 0.00 in Snow Light Snow
7:43 PM 30.2 °F 18.9 °F 24.8 °F 80% 30.09 in 5.0 mi NNW 16.1 mph 24.2 mph 0.00 in Snow Light Snow
7:51 PM 30.0 °F 20.0 °F 24.1 °F 79% 30.12 in 8.0 mi North 12.7 mph - 0.01 in Snow Light Snow
8:06 PM 30.2 °F 23.4 °F 23.0 °F 75% 30.09 in 10.0 mi North 6.9 mph - 0.00 in   Overcast
8:51 PM 30.0 °F 26.5 °F 23.0 °F 75% 30.13 in 10.0 mi NNW 3.5 mph - 0.00 in   Overcast
9:51 PM 28.0 °F 24.2 °F 23.0 °F 81% 30.14 in 10.0 mi WNW 3.5 mph - N/A   Mostly Cloudy
10:51 PM 28.9 °F 22.8 °F 24.1 °F 82% 30.13 in 10.0 mi NW 5.8 mph - N/A   Overcast
11:51 PM 28.9 °F 22.8 °F 23.0 °F 78% 30.13 in 10.0 mi WNW 5.8 mph - N/A   Overcast